www.pogodaiklimat.ru
Время
(UTC), дата
19 18.02
20 18.02
21 18.02
22 18.02
23 18.02
00 19.02
01 19.02
02 19.02
03 19.02
04 19.02
05 19.02
06 19.02
07 19.02
08 19.02
09 19.02
10 19.02
11 19.02
12 19.02
13 19.02
14 19.02
15 19.02
16 19.02
17 19.02
18 19.02
19 19.02
20 19.02
21 19.02
22 19.02
23 19.02
00 20.02
01 20.02
02 20.02
03 20.02
04 20.02
05 20.02
06 20.02
07 20.02
08 20.02
09 20.02
10 20.02
11 20.02
12 20.02
13 20.02
14 20.02
15 20.02
16 20.02
17 20.02
18 20.02
19 20.02
20 20.02
21 20.02
22 20.02
23 20.02
00 21.02
01 21.02
02 21.02
03 21.02
04 21.02
05 21.02
06 21.02
07 21.02
08 21.02
09 21.02
10 21.02
11 21.02
12 21.02
13 21.02
14 21.02
15 21.02
16 21.02
17 21.02
18 21.02
19 21.02
20 21.02
21 21.02
22 21.02
23 21.02
00 22.02
01 22.02
02 22.02
03 22.02
04 22.02
05 22.02
06 22.02
07 22.02
08 22.02
09 22.02
10 22.02
11 22.02
12 22.02
13 22.02
14 22.02
15 22.02
16 22.02
17 22.02
18 22.02
19 22.02
20 22.02
21 22.02
22 22.02
23 22.02
00 23.02
01 23.02
03 23.02
04 23.02
05 23.02
06 23.02
08 23.02
07 23.02
09 23.02
10 23.02
11 23.02
12 23.02
14 23.02
13 23.02
15 23.02
16 23.02
17 23.02
18 23.02
20 23.02
19 23.02
21 23.02
22 23.02
23 23.02
00 24.02
02 24.02
01 24.02
03 24.02
04 24.02
05 24.02
06 24.02
08 24.02
07 24.02
09 24.02
10 24.02
11 24.02
12 24.02
14 24.02
13 24.02
15 24.02
16 24.02
17 24.02
18 24.02
20 24.02
19 24.02
21 24.02
22 24.02
23 24.02
00 25.02
02 25.02
01 25.02
03 25.02
04 25.02
05 25.02
06 25.02
08 25.02
07 25.02
09 25.02
10 25.02
11 25.02
12 25.02
14 25.02
13 25.02
15 25.02
16 25.02
17 25.02
18 25.02
19 25.02
Ветер
(напр.,м/с)
Видим. Явления Облачность Т
(С)
Тd
(С)
f
(%)
Тe
(С)
Тes
(С)
Комфортность P
(гПа)
Po
(гПа)
Тmin
(С)
Tmax
(С)
R
(мм)
R24
(мм)
S
(см)
СЗ 4 50 км 3/0
[Ci fib]
+8.2 -3.0 45 +6 +6 тепло 1026.3 1009.8
З 3 50 км 5/0
[Ac lent Ci fib]
+7.8 -2.8 47 +6 +6 тепло 1026.4 1009.9
ЮЗ 2 50 км 3/0
[Ci fib]
+6.8 -2.6 51 +5 +5 тепло 1026.8 1010.2
ЮЗ 3 40 км 4/0
[Ac trans]
+4.4 -2.7 60 +1 +1 тепло 1027.0 1010.3
З 2 40 км 5/0
[Ac trans]
+3.9 -2.5 63 +1 +1 тепло 1026.8 1010.0
штиль 0 40 км 4/0 2000 м
[Ac trans]
+1.8 -2.9 71 +1 +1 тепло 1026.3 1009.4
З 2 40 км 4/0
[Ac trans]
+3.9 -2.1 65 +1 +1 тепло 1025.8 1009.0
ЮЗ 1 40 км 3/0
[Ac lent Ci fib]
+3.6 -1.9 67 +2 +2 тепло 1025.2 1008.4
нст 1 40 км 3/0
[Ac trans]
+0.9 -2.3 79 -1 -1 по сезону 1024.3 1007.4
Ю 1 40 км 8/0
[Ac trans]
-0.1 -3.1 80 -2 -2 тепло 1024.1 1007.1
ЮЗ 2 40 км 8/0
[Ac trans]
+2.2 -1.8 75 -1 -1 тепло 1023.6 1006.8
ЮЗ 1 40 км 8/0 2000 м
[Ac trans]
+2.4 -1.8 74 +1 +1 тепло 1023.2 1006.4 -0.3
Ю 3 40 км 8/0
[Ac trans]
+2.9 -0.2 80 -1 -1 тепло 1023.0 1006.2
Ю 3 40 км 9/0
[Ac trans Ci sp]
+4.6 +0.2 73 +1 +3 тепло 1022.5 1005.8
ЮЗ 4 40 км 9/0 2000 м
[Ac lent Ci sp]
+6.8 -1.1 57 +4 +5 тепло 1021.7 1005.2
ЮЗ 7 40 км 9/0
[Ac lent Ci sp]
+9.1 0.0 53 +5 +6 тепло 1020.8 1004.4
ЮЗ 10 40 км 9/0
[Ac As]
+9.5 -0.9 48 +5 +5 тепло 1019.7 1003.4
ЮЗ 10 40 км 9/0
[Ac lent Ci sp]
+9.5 -0.4 50 +5 +5 тепло 1018.7 1002.4
Ю 6 40 км 9/0
[Ac lent Ci sp]
+9.6 -1.1 47 +7 +7 тепло 1017.7 1001.4
ЮЗ 8 40 км 9/3 1500 м
[Sc Ac lent Ci sp]
+9.2 -0.7 50 +5 +6 тепло 1017.4 1001.1
ЮЗ 4 30 км 9/5 1440 м
[Sc Ac As]
+8.8 +0.3 55 +6 +6 тепло 1017.9 1001.6
З 6 12 км слаб. дождь 9/9 450 м
[Sc Ac As]
+6.8 +3.0 77 +2 +2 тепло 1018.9 1002.4
З 4 30 км слаб. дождь 9/9 1050 м
[Sc Ac As]
+6.7 +2.8 76 +3 +3 тепло 1018.8 1002.3
З 7 30 км в посл. час дождь 9/3 1320 м
[Cu hum Ac As]
+7.0 +1.9 70 +2 +2 тепло 1019.7 1003.2 +9.8 0.6
З 8 30 км 9/8 800 м
[Sc Ac As]
+6.1 +1.6 73 +1 +1 тепло 1020.6 1004.1
З 7 30 км 9/5 840 м
[Cu Sc Ac As]
+5.4 +1.1 74 0 0 тепло 1021.6 1005.0
З 5 40 км 9/3 720 м
[Cu hum Ac As]
+4.9 +0.5 73 0 0 по сезону 1022.2 1005.6
З 3 30 км 6/3 1500 м
[Sc Ac lent Ci fib]
+4.3 -0.5 71 +1 +1 тепло 1022.7 1006.0
СЗ 4 30 км 5/0
[Ac lent Ci fib]
+3.7 -0.7 73 -1 -1 тепло 1023.1 1006.4
З 3 40 км 4/4 1500 м
[Sc]
+3.7 -0.5 74 0 0 по сезону 1023.3 1006.6
Ю 2 40 км 8/4 1110 м
[Cu Sc Ac lent]
+3.0 -0.4 78 0 0 тепло 1023.6 1006.8
Ю 3 40 км в посл. час дождь со снегом 8/4 660 м
[Cu Sc Ac lent]
+4.0 -0.2 74 +1 +1 тепло 1023.7 1007.0
нст 1 40 км {ливн. осадки} 9/4 1440 м
[Sc Ac As]
+4.2 -0.4 72 +3 +3 тепло 1024.0 1007.3
40 км 9/8 1440 м
[Sc Ac lent]
+4.2 -0.8 70 1024.6 1007.9
СЗ 3 40 км 6/1 1500 м
[Sc Ac lent]
+3.9 -1.1 70 0 0 тепло 1024.5 1007.8
З 5 40 км {ливн. осадки} 1/0 2000 м
[Ac lent]
+3.9 -1.4 68 -1 -1 по сезону 1024.5 1007.8 +2.9 0.6
СЗ 7 50 км 1/0
[Ac lent]
+4.7 -1.5 64 -1 -0 тепло 1024.7 1008.0
СЗ 6 50 км 1/0
[Ac lent]
+5.7 -1.4 60 +1 +2 тепло 1025.1 1008.5
СЗ 6 50 км 1/1 960 м
[Cu hum Ac lent]
+6.7 -1.4 56 +3 +4 тепло 1025.1 1008.5
СЗ 6 50 км 8/8 1300 м
[Cu hum]
+8.0 -2.9 46 +4 +5 тепло 1025.2 1008.7
СЗ 6 50 км 5/5 1440 м
[Cu hum]
+8.8 -3.4 42 +6 +7 тепло 1024.9 1008.4
СЗ 4 50 км 3/3 1500 м
[Cu hum Ci fib]
+8.7 -4.5 39 +6 +9 тепло 1024.2 1007.7
СЗ 4 50 км 3/3 1500 м
[Cu hum]
+9.7 -4.6 36 +8 +9 тепло 1023.6 1007.2
СЗ 4 50 км 1/1 1500 м
[Sc diur, vesp Ac lent]
+9.8 -4.9 35 +8 +9 тепло 1023.5 1007.1
СЗ 2 50 км 3/3 1500 м
[Sc diur, vesp Ac lent]
+9.5 -4.8 36 +9 +9 тепло 1023.3 1006.9
ЮЗ 1 50 км 4/1 1500 м
[Sc diur, vesp Ac lent]
+8.4 -4.4 40 +8 +8 тепло 1023.0 1006.6
ЮВ 2 50 км 3/3 1500 м
[Sc Ac lent]
+5.8 -3.5 51 +4 +4 тепло 1023.3 1006.7
ЮВ 2 40 км 3/3 1500 м
[Sc Ac lent]
+4.2 -2.0 64 +2 +2 по сезону 1023.4 1006.7 +9.9
штиль 0 30 км 4/0
[Ac lent]
+4.4 -2.4 61 +4 +4 тепло 1023.0 1006.3
30 км 3/0
[Ac lent]
+3.1 -2.4 67 1022.8 1006.0
С 1 30 км 8/0 2000 м
[Ac lent]
+2.3 -1.5 76 +1 +1 по сезону 1022.4 1005.6
СВ 2 30 км 6/0
[Ac lent]
+2.7 -1.1 76 -0 -0 тепло 1021.8 1005.0
С 3 30 км 5/0
[Ac lent]
+2.6 -2.3 70 -1 -1 тепло 1021.2 1004.4
СВ 2 30 км 4/0 2000 м
[Ac lent]
+1.6 -2.9 72 -1 -1 по сезону 1020.9 1004.1
С 2 30 км 1/0
[Ac lent]
+0.7 -3.6 73 -3 -3 тепло 1020.3 1003.4
С 2 30 км 5/0
[Ac lent Ci fib]
+0.5 -3.2 76 -3 -3 тепло 1019.5 1002.6
СВ 2 30 км 8/0 2000 м
[Ac lent]
+0.9 -3.0 75 -2 -2 по сезону 1019.1 1002.3
штиль 0 30 км 8/5 1500 м
[Sc Ac lent]
+1.2 -2.9 74 0 0 тепло 1018.9 1002.1
Ю 1 30 км в посл. час дождь 8/6 1350 м
[Sc Ac lent]
+1.2 -1.7 81 -1 -1 тепло 1018.6 1001.8
СЗ 2 25 км слаб. дождь 9/5 1350 м
[Sc Ac As Ci sp]
+1.2 -1.7 81 -2 -2 по сезону 1018.9 1002.1 -0.5 0.1 0.1
З 10 20 км осадки на расстоянии 8/6 900 м
[Cu Sc Ac lent]
+8.1 +1.7 64 +3 +3 тепло 1018.9 1002.5
З 11-18
{23}
20 км слаб. ливневой дождь 9/8 450 м
[Cu Sc Ac As]
+7.3 +2.2 70 +2 +2 тепло 1021.2 1004.7
З 13-22
{23}
25 км осадки на расстоянии {ливн. осадки} 9/5 1050 м
[Cu Sc Ac As Ci sp]
+7.8 +0.3 59 +2 +2 по сезону 1021.6 1005.1
З 8 40 км в посл. час ливневой дождь 9/5 450 м
[Cu Sc Ac As Ci fib]
+6.0 +1.2 71 +1 +1 тепло 1023.8 1007.2
СЗ 9 50 км в посл. час ливневой дождь 9/6 1020 м
[Cu Sc Ac lent Ci fib]
+6.6 -0.4 61 +1 +2 тепло 1024.7 1008.1
СЗ 10-15
{23}
60 км {ливн. осадки} 6/6 1440 м
[Cu Sc Ac lent]
+7.3 -3.8 45 +2 +3 по сезону 1025.0 1008.5 0.2
СЗ 10 60 км 8/6 1440 м
[Cu Sc Ac lent Ci fib]
+7.8 -4.3 42 +3 +3 тепло 1025.2 1008.7
З 11 25 км осадки на расстоянии 9/8 1500 м
[Cu Sc Ac lent]
+7.5 -3.6 45 +2 +2 тепло 1025.6 1009.1
З 10 45 км 9/1 1500 м
[Cu hum Ac As]
+7.3 -4.1 44 +2 +2 по сезону 1026.4 1009.8
З 9 45 км 8/3 1500 м
[Cu hum Ac As Ci fib]
+6.9 -3.9 46 +2 +2 тепло 1027.0 1010.4
СЗ 8 45 км 3/0
[Ac lent]
+6.3 -3.1 51 +2 +2 тепло 1028.1 1011.4
СЗ 8 50 км 4/4 1500 м
[Sc]
+5.8 -2.8 54 +1 +1 по сезону 1028.9 1012.2 +8.3 0.2
СЗ 6 50 км 3/3 2000 м
[Sc]
+5.5 -2.6 56 +1 +1 тепло 1029.5 1012.8
СЗ 6 50 км 4/4 1500 м
[Sc]
+5.6 -2.7 55 +1 +1 тепло 1029.6 1012.9
нст 2 50 км 6/0 2000 м
[Ac lent]
+5.3 -2.8 56 +3 +3 тепло 1030.2 1013.5
СЗ 4 50 км 3/0
[Ac lent]
+5.0 -2.8 57 +1 +1 тепло 1030.2 1013.4
СЗ 2 50 км 1/0
[Ac lent]
+2.6 -3.1 66 -0 -0 тепло 1030.7 1013.8
нст 1 50 км ясно +2.1 -3.4 67 +1 +1 тепло 1031.0 1014.0
ЮЗ 1 50 км ясно +1.7 -3.0 71 0 0 тепло 1030.9 1013.9
40 км ясно +1.1 -2.6 76 1031.2 1014.2
З 1 40 км ясно +1.2 -3.8 69 -0 -0 по сезону 1030.7 1013.7
ЮЗ 1 40 км 8/0
[Ac lent]
+0.5 -3.0 77 -1 -1 тепло 1031.0 1014.0
40 км 9/0
[Ac As]
0.0 -2.7 82 1031.0 1013.9
ЮЗ 3 40 км 9/0
[Ac As]
+1.5 -2.1 77 -3 -3 по сезону 1030.9 1013.9 -1.4 0.2
Ю 1 40 км 9/0
[Ac As]
+2.1 -1.7 76 +1 +1 тепло 1031.0 1014.0
40 км 9/0
[Ac As]
+3.1 -1.6 71 1031.3 1014.4
В 2 40 км 9/0 2000 м
[Ac As Ci fib]
+4.1 -1.7 66 +2 +4 по сезону 1030.9 1014.1
40 км 9/0
[Ac As Cs]
+7.2 -2.0 52 1030.5 1013.9
ЮЗ 4 40 км 9/0
[Ac As Cs]
+9.7 -3.6 39 +8 +9 тепло 1029.7 1013.2
ЮЗ 5 40 км 8/0
[Ac lent Cs]
+11.4 -5.1 31 +9 +11 тепло 1028.9 1012.5
Ю 6 40 км 8/0
[Ac lent Ci sp]
+12.2 -4.8 30 +10 +11 тепло 1027.5 1011.2
Ю 6 40 км 6/0
[Ac lent Ci sp]
+12.4 -4.7 30 +10 +11 тепло 1026.9 1010.6
Ю 6 40 км 8/0
[Ac lent Ci sp]
+12.7 -4.8 29 +11 +11 тепло 1025.8 1009.6
Ю 5 40 км 9/0
[Ac lent Ci sp]
+11.1 -4.5 33 +9 +9 тепло 1024.9 1008.6
Ю 4 40 км 9/0
[Ac lent Ci sp]
+9.1 -3.4 41 +7 +7 тепло 1025.4 1009.0
Ю 3 40 км 9/0
[Ac lent Cs]
+7.3 -2.7 49 +5 +5 тепло 1025.2 1008.7 +12.8
35 км 9/0
[Ac lent Cs]
+5.7 -2.6 55 1025.1 1008.5
40 км 9/0
[Ac trans Ci sp]
+4.2 -2.9 60 1024.9 1008.2
нст 1 40 км 10/0
[Ac As Ci sp]
+7.0 -2.7 50 +7 +7 тепло 1023.7 1007.2
ЮЗ 2 40 км 9/0
[Ac As]
+6.8 -2.1 53 +5 +5 тепло 1023.6 1007.0
Ю 3 35 км 10/0
[Ac As]
+5.5 -0.3 66 +2 +2 тепло 1023.3 1006.7
нст 2 30 км 10/0 2000 м
[Ac As]
+4.6 -0.4 70 +2 +2 тепло 1023.7 1007.0
30 км 10/3 1500 м
[Sc Ac As]
+4.4 0.0 73 1023.7 1007.0
нст 2 30 км слаб. дождь 10/8 1500 м
[Sc Ac As]
+5.5 +1.0 73 +3 +3 тепло 1022.3 1005.7
З 7 30 км слаб. дождь 10/10 1320 м
[Sc]
+11.2 +3.3 58 +8 +8 тепло 1023.1 1006.8
З 5 25 км слаб. дождь 10/10 1410 м
[Sc]
+10.6 +4.3 65 +8 +8 тепло 1022.7 1006.4
З 4 25 км слаб. дождь 10/9 1380 м
[Sc Ac As]
+9.9 +4.7 70 +7 +7 тепло 1023.1 1006.8 +3.1 0.4 0.4
З 7 50 км 9/8 720 м
[Cu Sc Ac As]
+10.6 +3.9 63 +7 +7 тепло 1022.6 1006.3
З 7 40 км в посл. час дождь 9/6 1380 м
[Sc Ac As]
+10.4 +4.6 67 +7 +7 тепло 1022.7 1006.4
З 9 50 км {дождь} 9/6 720 м
[Cu Sc Ac As]
+11.1 +3.6 60 +8 +8 тепло 1022.3 1006.0
З 12 50 км 9/3 960 м
[Cu Sc Ac As Ci fib]
+11.8 +3.8 58 +8 +8 тепло 1020.9 1004.7
З 10 50 км 9/3 960 м
[Cu Sc Ac As Ci fib]
+12.6 +4.1 56 +9 +10 тепло 1019.9 1003.8
З 7 15 км слаб. дождь 10/5 1050 м
[Cu Sc As op]
+12.0 +5.9 66 +9 +9 тепло 1018.6 1002.4 0.2
ЮЗ 5 30 км в посл. час дождь 9/4 1000 м
[Cu Sc Ac As]
+8.8 +5.4 79 +5 +6 тепло 1015.5 999.2
Ю 7 10 км дождь 9/6 800 м
[Cu Sc As op]
+8.9 +6.7 86 +5 +5 тепло 1017.2 1000.9
ЮЗ 5 30 км {дождь} 9/4 1050 м
[Cu Sc Ac As]
+9.5 +5.1 74 +6 +6 тепло 1014.2 998.0
ЮЗ 7 30 км 9/3 1200 м
[Cu hum Ac As]
+10.5 +4.2 65 +7 +7 тепло 1013.0 996.8
ЮЗ 6 30 км 9/1 1200 м
[Cu hum Ac As]
+12.5 +5.2 61 +10 +10 тепло 1011.3 995.3
З 12 40 км {дождь} 9/1 1200 м
[Sc Ac As]
+17.0 +6.8 51 +15 +15 тепло 1009.8 994.1 +17.0 3
З 10 40 км 10/1 1200 м
[Sc Ac As]
+16.7 +6.2 50 +15 +15 тепло 1008.0 992.3
З 12-18
{21}
40 км 9/0
[Ac As]
+16.9 +6.4 50 +15 +15 тепло 1008.9 993.2
З 11-16
{21}
50 км в посл. час дождь 9/1 900 м
[Sc Ac lent Cs]
+17.1 +6.0 48 +15 +15 тепло 1008.1 992.4
З 10 50 км 9/3 1230 м
[Cu Sc Ac lent Cs]
+17.1 +6.0 48 +16 +16 тепло 1007.8 992.1
З 17-30
{30}
50 км 5/3 900 м
[Sc Ac lent Ci fib]
+16.7 +6.0 49 +14 +14 тепло 1008.0 992.3
З 18-24
{30}
50 км {дождь} 8/4 900 м
[Cu Sc Ac lent Ci sp]
+16.2 +6.4 52 +14 +14 тепло 1007.6 991.9 0.0
СЗ 10-15
{21}
20 км слаб. дождь 10/9 750 м
[Sc]
+8.6 +4.6 76 +4 +4 тепло 1014.0 997.7
СЗ 16-22
{26}
8000 м ливневой дождь 9/9 540 м
[Cu Sc]
+9.0 +5.4 78 +3 +3 тепло 1011.7 995.5
СЗ 15-22
{26}
50 км в посл. час дождь {ливн. осадки} 9/6 1140 м
[Sc Ac As]
+8.2 -1.6 50 +3 +3 тепло 1016.2 999.8
СЗ 13
{20}
50 км 9/1 1500 м
[Sc Ac As]
+7.7 -1.5 52 +2 +2 тепло 1017.9 1001.5
СЗ 15-20
{21}
50 км 5/1 1470 м
[Sc Ac As Ci fib]
+6.6 -3.1 50 0 0 тепло 1019.3 1002.8
СЗ 12-17
{26}
50 км {ливн. осадки, дождь} 3/1 1110 м
[Cu hum Ac lent]
+6.1 -3.0 52 0 0 по сезону 1020.4 1003.9 +6.1 2 5.5
СЗ 8 50 км 3/1 1140 м
[Cu hum Ac lent]
+6.6 -2.8 51 +2 +2 тепло 1023.2 1006.6
СЗ 11 50 км 3/1 1140 м
[Cu hum Ac lent]
+6.0 -3.4 51 0 0 тепло 1022.2 1005.6
СЗ 6 50 км 5/4 1300 м
[Cu hum Ac lent]
+7.1 -2.1 52 +3 +4 по сезону 1023.6 1007.1
СЗ 5 50 км 5/5 1230 м
[Cu hum Ac lent Ci sp]
+8.1 -1.7 50 +5 +7 тепло 1023.7 1007.2
З 5 50 км 5/5 1350 м
[Cu hum Ac lent Ci sp]
+8.7 -1.4 49 +6 +7 тепло 1023.6 1007.2
З 5 50 км 6/4 1440 м
[Cu hum Ac lent Ci fib]
+9.3 -1.7 46 +7 +8 тепло 1022.5 1006.1
З 5 50 км 8/6 1500 м
[Cu Sc Ac lent]
+10.1 -1.3 45 +8 +8 тепло 1021.0 1004.7
З 4 50 км 6/4 1500 м
[Cu hum Ac lent Ci fib]
+10.0 -2.3 42 +8 +9 тепло 1022.0 1005.7
З 5 50 км 9/1 1350 м
[Cu Sc Ac As]
+9.7 -1.3 46 +7 +7 тепло 1020.8 1004.5
З 3 50 км 9/1 1350 м
[Cu Sc Ac As]
+9.4 -1.6 46 +8 +8 тепло 1019.9 1003.6
Ю 2 50 км 9/1 1500 м
[Sc Ac As]
+8.4 -0.6 53 +7 +7 тепло 1019.2 1002.8
Ю 3 50 км 9/6 1500 м
[Sc Ac As]
+8.1 +0.1 57 +6 +6 тепло 1018.4 1002.0 +11.1
Ю 4 50 км 9/9 1080 м
[Sc Ac As]
+8.3 0.0 56 +6 +6 тепло 1015.8 999.5
Ю 5 50 км 9/9 1380 м
[Sc Ac As]
+8.3 0.0 56 +5 +5 тепло 1017.2 1000.8
Ю 3 50 км 9/9 1000 м
[Sc]
+8.1 -0.6 54 +6 +6 тепло 1015.1 998.8
Ю 5 50 км 9/9 1140 м
[Sc]
+8.1 -0.6 54 +5 +5 тепло 1013.7 997.4
Ю 3 50 км 8/8 1500 м
[Sc]
+7.7 -0.3 57 +5 +5 тепло 1012.7 996.4
ЮЗ 4 50 км 1/1 1500 м
[Sc]
+5.6 -0.0 67 +2 +2 тепло 1011.8 995.4
50 км ясно +4.6 +0.2 73 1011.1 994.6
ЮЗ 4 50 км 1/1 1500 м
[Sc]
+5.4 +0.2 69 +2 +2 тепло 1011.5 995.1
Ю 2 50 км 3/0
[Ci fib]
+3.1 -0.5 77 0 0 по сезону 1010.4 993.9
ЮВ 1 40 км 4/0
[Ci fib]
+2.3 -0.8 80 +1 +1 тепло 1010.3 993.7
Ю 2 40 км 5/1 1500 м
[Sc Cc]
+2.8 -0.1 81 -0 -0 тепло 1010.1 993.5
Ю 3 40 км 6/1 1500 м
[Sc Cc]
+2.7 -0.4 80 -1 -1 по сезону 1009.4 992.8 +1.4
ЮЗ 3 35 км 8/1 1500 м
[Sc Cc]
+4.2 -0.6 71 +1 +3 тепло 1008.9 992.4
40 км 8/1 1500 м
[Sc Cc]
+3.8 -0.4 74 1009.3 992.8
нст 2 35 км 9/0
[Cs]
+6.3 +0.6 67 +4 +8 тепло 1008.0 991.7
35 км 9/0
[Cs]
+8.5 +1.9 63 1007.0 990.8
30 км 9/0
[Cs]
+10.8 +2.9 58 1005.9 989.9
Ю 2 25 км 9/0
[Cs]
+12.4 +3.9 56 +12 +17 тепло 1004.9 989.0
Ю 5 25 км 9/0
[Cs]
+14.8 +5.1 52 +13 +15 тепло 1002.6 986.9
25 км 9/0
[Cs]
+14.2 +4.2 51 1003.8 988.0
ЮЗ 4 25 км 9/0 2000 м
[Ac lent Cs]
+14.1 +4.7 53 +13 +13 тепло 1002.3 986.5
ЮЗ 3 25 км 9/0
[Ac lent Cs]
+13.2 +4.6 56 +12 +12 тепло 1001.9 986.1
ЮЗ 3 25 км 9/0
[Ac As Cs]
+13.3 +4.5 55 +12 +12 тепло 1001.9 986.1
ЮЗ 5 30 км 9/0
[Cs]
+11.5 +4.0 60 +9 +9 тепло 1001.8 985.9 +14.9
ЮЗ 3 30 км 9/0
[Ac As Cs]
+13.3 +1.3 44 +12 +12 тепло 1001.5 985.7
Местоположение метеостанции Братислава (Словакия): широта 48.17 долгота 17.21 высота над уровнем моря 134 м.
В архиве по умолчанию представлена погода в Братиславе за последнюю неделю. Архивные данные за месяц целиком и за предыдущие месяцы, начиная с января 2011 года, Вы можете получить, выбрав интересующий диапазон дат из раскрывающегося списка и нажав кнопку "Найти!".
*Определитесь, кто Вы:
Внимание! Время в таблицах - всемирное. Для получения местного времени необходимо прибавить поправку, которая равна 1 ч.
Смотрите также архив погоды в соседних городах и на ближайших метеорологических станциях:
Партнеры нашего сайта:      
Пояснения к столбцам:
  • Ветер - указаны скорость ветра в м/с - средняя за 10 мин, порывы в срок и между сроками (в фигурных скобках) и направление, откуда дует ветер: С - северный,
  • СВ - северо-восточный, В - восточный, ЮВ - юго-восточный, Ю - южный, ЮЗ - юго-западный, З - западный, СЗ - северо-западный.
  • Видимость - горизонтальная дальность видимости в метрах или километрах. При видимости от 1 до 10 км при отсутствии осадков обычно наблюдается дымка, при ухудшении видимости до 1 км и менее - туман. В сухую погоду видимость может ухудшаться дымом, пылью или мглою.
  • Явления - указаны атмосферные явления, наблюдавшиеся в срок или в последний час перед сроком; фигурными скобками обозначены явления, наблюдавшиеся между сроками (за 1-3 часа до срока); квадратными скобками обозначены град или гололедные отложения с указанием их диаметра в мм.
  • Облачность - указаны через наклонную черту общая и нижняя облачность в баллах и высота нижней границы облаков в метрах; квадратными скобками обозначены формы облаков: Ci - перистые, Cs - перисто-слоистые, Cc - перисто-кучевые, Ac - высококучевые, As - высокослоистые, Sc - слоисто-кучевые, Ns - слоисто-дождевые, Cu - кучевые, Cb - кучево-дождевые. Подробнее классификацию облаков см. в Атласе облаков (PDF).
  • T - Температура воздуха - температура, измеренная на высоте 2 м над землей.
  • Td - Температура точки росы - температура, при понижении до которой содержащийся в воздухе водяной пар достигнет насыщения.
  • f - Относительная влажность воздуха - влажноcть воздуха, измеренная на высоте 2 м над землей.
  • Te - Эффективная температура - температура, которую ощущает одетый по сезону человек в тени. Характеристика душности погоды. При расчете учитывается влияние влажности воздуха и скорости ветра на теплоощущения человека.
  • Tes - Эффективная температура на солнце - температура, которую ощущает человек, с поправкой на солнечный нагрев. Характеристика знойности погоды. Зависит от высоты солнца над горизонтом, облачности и скорости ветра. Ночью, в пасмурную погоду, а также при ветре 12 м/с и более поправка равна нулю.
  • P - Атмосферное давление - приведенное к уровню моря атмосферное давление.
  • Po - Атмосферное давление - измеренное на уровне метеостанции атмосферное давление.
  • Tmin - Минимальная температура - минимум температуры воздуха на высоте 2 м над землей.
  • Tmax - Максимальная температура - максимум температуры воздуха на высоте 2 м над землей.
  • R - Количество осадков - Количество выпавших осадков за период времени, мм. При наведении курсора мыши на число - период времени, за который выпало указанное количество осадков.
  • R24 - Количество осадков - Количество выпавших осадков за 24 часа, мм.
  • S - Снежный покров - Высота снежного покрова, см. При наведении курсора мыши на число - состояние снежного покрова и степень покрытия местности в баллах.